Weather History for Waukegan, IL

Change the Weather History Date:

Saturday, February 9, 2013

  Actual Average Record
Temperature  
Mean Temperature 24 °F -  
Max Temperature 33 °F 32 °F 52 °F (2001)
Min Temperature 14 °F 17 °F -2 °F (2011)
Degree Days  
Heating Degree Days 41 41  
Month to date heating degree days 418 375  
Since 1 July heating degree days 3878 4226  
Cooling Degree Days 0 0  
Month to date cooling degree days 0 0  
Year to date cooling degree days 0 0  
Moisture  
Dew Point 20 °F    
Average Humidity 86    
Maximum Humidity 100    
Minimum Humidity 72    
Precipitation  
Precipitation 0.00 in 0.06 in 0.55 in (2001)
Month to date precipitation 0.02 0.48  
Year to date precipitation 1.30 1.87  
Sea Level Pressure  
Sea Level Pressure 30.31 in    
Wind  
Wind Speed 5 mph (SSW)    
Max Wind Speed 16 mph    
Max Gust Speed 18 mph    
Visibility 6 miles    
Events      
T = Trace of Precipitation, MM = Missing Value Source: NWS Daily Summary

Daily Weather History Graph

Daily Weather History Graph

Search for Another Location

Airport:

Trip Planner

Search our weather history database for the weather conditions in past years. The results will help you decide how hot, cold, wet, or windy it might be!

Date:

Astronomy

Feb. 09, 2013 Rise Set
Actual Time 6:55 AM CST 5:16 PM CST
Civil Twilight 6:26 AM CST 5:45 PM CST
Nautical Twilight 5:53 AM CST 6:18 PM CST
Astronomical Twilight 5:20 AM CST 6:51 PM CST
Moon 6:06 AM CST (2/9) 4:59 PM CST (2/9)
Length of Visible Light 11h 19m
Length of Day
10h 20m
Waning Crescent, 0% of the Moon is Illuminated
Feb 9
Waning Crescent
Feb 10
New
Feb 17
First Quarter
Feb 25
Full
Mar 4
Last Quarter

Hourly Weather History & Observations

Time (CST) Temp. Windchill Dew Point Humidity Pressure Visibility Wind Dir Wind Speed Gust Speed Precip Events Conditions
12:04 AM 19.4 °F - 17.6 °F 93% 30.37 in 7.0 mi Calm Calm - N/A   Scattered Clouds
12:52 AM 19.0 °F 13.9 °F 16.0 °F 88% 30.42 in 6.0 mi WNW 3.5 mph - N/A   Mostly Cloudy
1:09 AM 19.4 °F 11.5 °F 17.6 °F 93% 30.36 in 6.0 mi West 5.8 mph - N/A   Scattered Clouds
1:52 AM 18.0 °F 11.1 °F 16.0 °F 92% 30.43 in 5.0 mi WSW 4.6 mph - N/A   Scattered Clouds
2:21 AM 17.6 °F 10.7 °F 15.8 °F 93% 30.38 in 6.0 mi West 4.6 mph - N/A   Mostly Cloudy
2:52 AM 18.0 °F - 16.0 °F 92% 30.43 in 6.0 mi Calm Calm - N/A   Overcast
3:52 AM 15.1 °F 9.4 °F 14.0 °F 95% 30.42 in 6.0 mi West 3.5 mph - N/A   Overcast
4:52 AM 18.0 °F 12.7 °F 16.0 °F 92% 30.43 in 6.0 mi WNW 3.5 mph - N/A   Overcast
5:52 AM 14.0 °F - 14.0 °F 100% 30.42 in 6.0 mi Calm Calm - N/A   Overcast
6:52 AM 18.0 °F - 16.0 °F 92% 30.42 in 5.0 mi Calm Calm - N/A   Overcast
7:52 AM 17.1 °F - 16.0 °F 96% 30.42 in 4.0 mi Calm Calm - N/A   Overcast
8:52 AM 21.0 °F - 19.9 °F 96% 30.41 in 4.0 mi Calm Calm - N/A   Overcast
9:52 AM 25.0 °F 18.1 °F 21.0 °F 85% 30.40 in 6.0 mi SSW 5.8 mph - N/A   Overcast
10:52 AM 28.0 °F 17.0 °F 21.0 °F 75% 30.39 in 10.0 mi South 13.8 mph - N/A   Overcast
11:52 AM 30.0 °F 21.7 °F 24.1 °F 79% 30.34 in 10.0 mi South 9.2 mph - N/A   Overcast
12:52 PM 30.0 °F 21.7 °F 24.1 °F 79% 30.31 in 9.0 mi South 9.2 mph - N/A   Overcast
1:43 PM 30.2 °F 20.8 °F 24.8 °F 80% 30.23 in 10.0 mi South 11.5 mph - N/A   Scattered Clouds
1:52 PM 30.9 °F 22.8 °F 24.1 °F 76% 30.28 in 9.0 mi SSE 9.2 mph - N/A   Partly Cloudy
2:52 PM 32.0 °F 25.6 °F 25.0 °F 75% 30.26 in 8.0 mi SSE 6.9 mph - 0.01 in   Partly Cloudy
3:52 PM 32.0 °F 23.6 °F 24.1 °F 73% 30.25 in 9.0 mi South 10.4 mph - N/A   Clear
4:52 PM 30.9 °F 24.3 °F 24.1 °F 76% 30.24 in 8.0 mi South 6.9 mph - N/A   Partly Cloudy
5:52 PM 26.1 °F 20.5 °F 24.1 °F 92% 30.23 in 6.0 mi SSW 4.6 mph - N/A   Clear
6:52 PM 21.9 °F - 19.9 °F 92% 30.22 in 4.0 mi Calm Calm - N/A   Clear
7:52 PM 19.9 °F - 17.1 °F 89% 30.21 in 2.5 mi Calm Calm - N/A   Clear
8:06 PM 21.2 °F - 19.4 °F 93% 30.14 in 3.0 mi Calm Calm - N/A   Clear
8:52 PM 21.0 °F - 19.9 °F 96% 30.19 in 4.0 mi Calm Calm - N/A   Clear
9:52 PM 28.9 °F 21.9 °F 27.0 °F 92% 30.17 in 4.0 mi SE 6.9 mph - N/A   Clear
10:52 PM 30.0 °F 24.1 °F 28.0 °F 92% 30.14 in 5.0 mi SE 5.8 mph - N/A   Clear
11:52 PM 30.9 °F 25.2 °F 28.0 °F 89% 30.12 in 6.0 mi SE 5.8 mph - N/A   Mostly Cloudy